Miscellaneous Local Product
Issued by NWS North Platte, NE

Home | Current Version | Previous Version | Graphics & Text | Print | Product List | Glossary On
Versions: 1 2 3 4 5 6 7 8 9 10 11 12 13 14 15 16 17 18 19 20 21 22 23 24 25 26 27 28 29 30 31 32 33 34 35 36 37 38 39 40 41 42 43 44 45 46 47 48 49 50
000
AXUS43 KLBF 241910
MISLBF


WESTERN AND NORTH CENTRAL NEBRASKA HOURLY WEATHER ROUNDUP
NATIONAL WEATHER SERVICE NORTH PLATTE NE
200 PM CDT SUN JUL 24 2016

NOTE: "FAIR" INDICATES FEW OR NO CLOUDS BELOW 12,000 FEET WITH NO
SIGNIFICANT WEATHER AND/OR OBSTRUCTIONS TO VISIBILITY.

NOTE: STATIONS NOT REPORTING VARIABLES SUCH AS SKY/WEATHER OR
PRESSURE ARE PROVIDED BY RAWS AND APRS NETWORKS AND ARE NOT UNDER
NATIONAL WEATHER SERVICE QUALITY CONTROL.

...OBSERVATIONS IN AND NEAR THE EASTERN PANHANDLE OF NEBRASKA...

CITY           SKY/WX    TMP DP  RH WIND       PRES   REMARKS
PINE RIDGE     SUNNY     85  44  23 NE9G18    30.15F
CHADRON        SUNNY     86  42  21 SE13G22   30.13F
ALLIANCE       MOSUNNY   80  52  37 E15G24    30.17F
SIDNEY         SUNNY     84  54  35 SE13      30.19F
CRESCENT LAKE    N/A     79  55  43 E10G17      N/A
$$

...OBSERVATIONS IN NORTHERN NEBRASKA AND FAR SOUTHERN SOUTH DAKOTA...

CITY           SKY/WX    TMP DP  RH WIND       PRES   REMARKS
WINNER         FAIR      82  54  37 NW5       30.11S
VALENTINE      MOSUNNY   84  48  28 MISG      30.13S
THEDFORD       CLOUDY    83  52  34 E8        30.14F
AINSWORTH      CLOUDY    81  58  46 E3        30.14R
O`NEILL        CLOUDY    80  59  49 N7        30.12F
ORD            CLOUDY    83  60  45 VRB6      30.08F
BROKEN BOW     SUNNY     81  63  54 NE8       30.11F
VALENTINE NWR    N/A     82  55  39 NE6G13      N/A
BUTTE            N/A     78  60  53 NE3         N/A
HALSEY           N/A     79  55  43 E6G14       N/A
EWING            N/A     82  63  52 N3          N/A
$$

...OBSERVATIONS IN SOUTHWEST NEBRASKA AND FAR NORTHEAST COLORADO...

CITY           SKY/WX    TMP DP  RH WIND       PRES   REMARKS
WRAY           FAIR      86  50  28 E16G23    30.14
HOLYOKE        FAIR      81  55  41 W18G30    30.11F
IMPERIAL       SUNNY     85  50  29 E24       30.08F
OGALLALA       CLOUDY    83  50  31 E17G23    30.13R
NORTH PLATTE   SUNNY     81  59  47 E16G24    30.09F
MCCOOK         SUNNY     87  57  35 NE17      30.08S
LEXINGTON      SUNNY     83  57  40 NE13      30.10F
STAPLETON        N/A     80  60  49 CALM        N/A
GOTHENBURG       N/A     81  52  36 NE10        N/A
CALLAWAY         N/A     80  64  58 E7          N/A
$$

...OBSERVATIONS IN CENTRAL LINCOLN COUNTY AREA...

CITY           SKY/WX    TMP DP  RH WIND       PRES   REMARKS
N.P. AIRPORT   SUNNY     81  59  47 E16G24    30.09F
N.P. DOWNTOWN    N/A     80  58  47 E7G14       N/A
N.P. SOUTHEAST   N/A     81  60  49 E3          N/A
N.P. HILLCREST   N/A     79  58  47 E18         N/A
$$

...SOME OBSERVATIONS FROM AROUND THE REGION...

CITY           SKY/WX    TMP DP  RH WIND       PRES   REMARKS
DENVER         MOSUNNY   90  43  19 VRB7      30.14F
LARAMIE        CLOUDY    81  33  17 N15G21    30.29F
CHEYENNE       CLOUDY    78  49  35 SE14      30.24F
SCOTTSBLUFF    SUNNY     85  50  29 SE20G26   30.15F
RAPID CITY     PTSUNNY   83  49  30 SE9       30.13F
BISMARCK       SUNNY     82  55  39 NW15G25   30.04S
PIERRE         CLOUDY    82  52  35 NW9       30.07F
SIOUX FALLS    CLOUDY    76  61  59 W7        30.07R
OMAHA          CLOUDY    83  67  58 N9        29.97F
GRAND ISLAND   MOSUNNY   86  57  37 NE9       30.08S
KANSAS CITY    CLOUDY    91  72  53 SW5       29.94F HX  98
WICHITA        PTSUNNY   99  67  35 S9        29.92F HX 103
OKLAHOMA CITY  MOSUNNY   99  68  36 S12G18    29.96F HX 104
DALLAS         MOSUNNY   97  68  38 VRB6      29.94F HX 102
AMARILLO       SUNNY     96  56  26 VRB7      30.07F HX  94
DODGE CITY     CLOUDY    91  67  44 SW6       29.99F HX  94
HAYS           SUNNY     93  64  38 E14G23    29.97S HX  95
GOODLAND       SUNNY     89  58  34 NE20G25   30.10F
$$




USA.gov is the U.S. government's official web portal to all federal, state and local government web resources and services.